Regional Weather Roundup
Issued by NWS

Home | Current Version | Previous Version | Text Only | Print | Product List | Glossary Off
Versions: 1 2 3 4 5 6 7 8 9 10 11 12 13 14 15 16 17 18 19 20 21 22 23 24 25 26 27 28 29 30 31 32 33 34 35 36 37 38 39 40 41 42 43 44 45 46 47 48 49 50

000
ASUS43 KMKX 190700
RWRWI

WISCONSIN REGIONAL WEATHER ROUNDUP
NATIONAL WEATHER SERVICE MILWAUKEE/SULLIVAN WI
200 AM CDT SAT APR 19 2014

NOTE: "FAIR" INDICATES FEW OR NO CLOUDS BELOW 12,000 FEET WITH NO
SIGNIFICANT WEATHER AND/OR OBSTRUCTIONS TO VISIBILITY.

WIZ001-002-006>008-014>016-023>028-190800-
NORTHWEST WISCONSIN

CITY           SKY/WX    TMP DP  RH WIND       PRES   REMARKS
SUPERIOR ARPT  CLOUDY    31  28  88 NE9       30.30F WCI  23
ASHLAND        CLOUDY    30  26  85 NE5       30.34S WCI  25
HAYWARD        CLOUDY    39  18  42 SE9       30.28S WCI  33
SIREN          MOCLDY    41  22  46 SE9G16    30.23F
RICE LAKE      CLOUDY    40  22  48 E9        30.29R WCI  34
LADYSMITH      CLOUDY    40  23  52 E10       30.31S WCI  33
EAU CLAIRE     NOT AVBL
MENOMONIE      CLOUDY    41  26  54 E8        30.27R
NEW RICHMOND   MOCLDY    41  26  54 SE13G18   30.22F
OSCEOLA        PTCLDY    42  26  53 SE22G29   30.22F
$$

WIZ003>005-009-010-017-018-190800-
NORTH CENTRAL WISCONSIN

CITY           SKY/WX    TMP DP  RH WIND       PRES   REMARKS
WOODRUFF       MOCLDY    33  24  70 SE7       30.34F WCI  27
RHINELANDER    MOCLDY    30  23  75 E9        30.35F WCI  22
EAGLE RIVER    MOCLDY    31  22  69 CALM      30.36S
LAND O LAKES   CLOUDY    31  24  76 SE6       30.37S WCI  25
PHILLIPS       MOCLDY    34  22  62 SE9       30.32S WCI  26
TOMAHAWK       MOCLDY    33  23  66 CALM      30.35F
MEDFORD        PTCLDY    35  27  71 E8        30.32S WCI  28
MERRILL        MOCLDY    34  25  69 CALM      30.36S
$$

WIZ029-030-035-036-043>047-190800-
CENTRAL WISCONSIN

CITY           SKY/WX    TMP DP  RH WIND       PRES   REMARKS
WAUSAU         MOCLDY    35  27  72 SE10G17   30.35R WCI  27
MOSINEE        MOCLDY    34  30  86 E10G16    30.35S WCI  26
MARSHFIELD     CLEAR     35  27  72 SE15      30.34R WCI  25
STEVENS POINT  MOCLDY    33  25  71 SE10      30.37R WCI  25
WAUPACA        MOCLDY    36  27  69 E8        30.40S WCI  29
WAUTOMA        NOT AVBL
WISC RAPIDS    PTCLDY    35  25  66 SE6       30.38R WCI  30
CAMP DOUGLAS   NOT AVBL
$$

WIZ011>013-019>022-031-037>040-048>050-190800-
NORTHEAST WISCONSIN

CITY           SKY/WX    TMP DP  RH WIND       PRES   REMARKS
ANTIGO         CLOUDY    32  25  75 SE12      30.38R WCI  23
STURGEON BAY   CLEAR     30  27  86 E6        30.45R WCI  24
GREEN BAY      CLEAR     32  27  81 E5        30.43R WCI  27
MANITOWOC      NOT AVBL
APPLETON       PTCLDY    34  27  75 E7        30.40S WCI  28
CLINTONVILLE   MOCLDY    34  27  75 E6        30.41S WCI  29
OSHKOSH        PTCLDY    34  26  72 E9        30.39S WCI  27
$$

WIZ032>034-041-042-053>061-190800-
SOUTHWEST WISCONSIN

CITY           SKY/WX    TMP DP  RH WIND       PRES   REMARKS
LA CROSSE      PTCLDY    45  29  53 SE9       30.28S
SPARTA         PTCLDY    40  31  69 E8        30.32R WCI  35
VIROQUA        FAIR      40  32  72 E15       30.28R WCI  32
BOSCOBEL       PTCLDY    41  30  65 E5        30.34R
PRAIRIE DU CHI PTCLDY    43  32  64 E15       30.30R
PLATTEVILLE    FAIR      37  30  77 E17       30.32S WCI  27
$$

WIZ056-057-062-063-064-067-068-190800-
SOUTH CENTRAL WISCONSIN

CITY           SKY/WX    TMP DP  RH WIND       PRES   REMARKS
BARABOO/DELLS  CLEAR     34  26  72 E7        30.35R WCI  28
LONE ROCK      NOT AVBL
WATERTOWN      CLEAR     34  26  71 E10       30.37S WCI  26
MADISON        CLEAR     34  25  69 E7        30.37S WCI  28
MIDDLETON      FAIR      37  26  65 E13       30.36S WCI  28
MONROE         CLEAR     34  27  74 E8        30.33S WCI  27
JANESVILLE     CLEAR     36  27  69 E7        30.35F WCI  30
$$

WIZ051-052-058>065-066-070>072-190800-
SOUTHEAST WISCONSIN

CITY           SKY/WX    TMP DP  RH WIND       PRES   REMARKS
MILWAUKEE      PTCLDY    35  28  75 NE9       30.40S WCI  28
WAUKESHA       CLEAR     32  27  80 E8        30.39F WCI  25
MILWAUKEE/TIMM CLEAR     34  27  75 NE6       30.40F WCI  29
RACINE         CLEAR     36  27  69 E12       30.40S WCI  28
BURLINGTON     CLEAR     32  26  80 E3        30.37F
KENOSHA        CLEAR     34  27  75 E9        30.38S WCI  27
FOND DU LAC    PTCLDY    35  24  64 SE9       30.39S WCI  28
SHEBOYGAN      CLEAR     31  27  85 E6        30.41R WCI  25
WEST BEND      PTCLDY    32  27  80 E8        30.40S WCI  25
JUNEAU         PTCLDY    34  22  61 E10       30.39S WCI  26
$$

LSZ147-162-190800-
LAKE SUPERIOR

STATION/POSITION TIME  TEMP    WIND        PRES    WAVE
                       AIR SEA DIR/SP/G            HT/PER
                 (UTC) (F)     (DEG/KT/KT) (MB)    (FT/S)
DEVILS ISLAND    0600   32      90/  9/ 10 1029.3F
PORT WING        0640   34      30/ 10/ 12 1026.4F
SAXON HARBOR     0600             CALM     1027.4
$$

LMZ867-665-643>646-190800-
LAKE MICHIGAN

STATION/POSITION TIME  TEMP    WIND        PRES    WAVE
                       AIR SEA DIR/SP/G            HT/PER
                 (UTC) (F)     (DEG/KT/KT) (MB)    (FT/S)
NORTHPORT PIER   0600   33      50/  5/  8 1030.1R
SISTER BAY       0623   31     130/  8/ 10   N/A
KEWAUNEE LAKESHO 0600   34      80/  6/  8 1030.4R
SHEBOYGAN LAKESH 0600   36      50/  8/  9 1030.6R
PORT WASHINGTON  0640   36      50/  8/  9 1030.1S
MILWAUKEE LAKESH 0600   37      40/  8/ 10   N/A
KENOSHA   LAKESH 0600   38      50/ 14/ 17   N/A
$$

TC  - TEMPERATURE IN CELSIUS
VSB - VISIBILITY IN STATUTE MILES
WCI - WIND CHILL INDEX
HX  - HEAT INDEX




USA.gov is the U.S. government's official web portal to all federal, state and local government web resources and services.